15min,AgWx,beryljct,423,18JUN2019:00:00:00,54.7,12.91,54.4,53.9,53.8,54.9,53.1,82,85,78,1.146,48.3,49.2,47.7,1.798,2.3,24,25,5.8,0.00009,0.00013,65.7,67.0,10,0,.,.,16.07,0.00,0.00
15min,AgWx,beryljct,423,18JUN2019:00:15:00,54.2,12.92,53.3,52.5,52.2,54.0,51.3,86,89,81,1.165,48.2,48.7,47.7,0.811,1.2,334,20,3.1,0.00004,0.00006,65.5,66.9,10,0,.,.,16.07,0.00,0.00
15min,AgWx,beryljct,423,18JUN2019:00:30:00,53.7,12.91,52.8,53.1,53.0,53.3,52.5,85,86,84,1.155,48.6,48.9,48.3,0.614,0.4,351,11,1.6,0.00002,0.00004,65.3,66.8,10,0,.,.,16.07,0.00,0.00
15min,AgWx,beryljct,423,18JUN2019:00:45:00,53.4,12.91,54.4,53.8,53.4,54.0,52.9,83,85,81,1.150,48.4,48.6,48.1,0.811,1.6,320,22,3.4,0.00006,0.00010,65.1,66.8,10,0,.,.,16.07,0.00,0.00
15min,AgWx,beryljct,423,18JUN2019:01:00:00,53.2,12.89,53.6,53.6,53.9,54.5,53.3,81,83,79,1.159,48.2,48.5,47.9,1.666,1.3,307,4.7,2.1,0.00006,0.00010,64.9,66.7,9,0,.,.,16.07,0.00,0.00
15min,AgWx,beryljct,423,18JUN2019:01:15:00,52.9,12.9,49.4,49.8,52.1,53.6,49.7,85,91,81,1.096,47.7,48.5,46.9,1.995,1.5,357,35,3.0,0.00005,0.00008,64.8,66.6,9,0,.,.,16.07,0.00,0.00
15min,AgWx,beryljct,423,18JUN2019:01:30:00,52.2,12.89,50.5,49.6,49.2,50.1,48.6,92,93,90,1.112,46.9,47.6,46.5,3.639,2.6,334,18,4.8,0.00004,0.00006,64.5,66.6,10,0,.,.,16.07,0.00,0.00
15min,AgWx,beryljct,423,18JUN2019:01:45:00,51.6,12.89,52.8,51.8,49.6,51.8,48.3,91,95,86,1.129,47.2,48.1,46.1,3.244,3.8,296,28,5.2,0.00006,0.00008,64.4,66.5,10,0,.,.,16.07,0.00,0.00
15min,AgWx,beryljct,423,18JUN2019:02:00:00,51.7,12.88,50.8,51.4,53.5,54.8,51.4,79,86,75,1.103,47.2,47.8,46.7,2.784,1.8,331,45,3.4,0.00008,0.00013,64.2,66.4,10,0,.,.,16.07,0.00,0.00
15min,AgWx,beryljct,423,18JUN2019:02:15:00,51.8,12.88,51.4,51.3,51.6,52.1,51.2,86,88,84,1.137,47.6,48.0,47.2,0,0.5,293,3.9,2.9,0.00002,0.00003,64.0,66.3,10,0,.,.,16.07,0.00,0.00
15min,AgWx,beryljct,423,18JUN2019:02:30:00,51.8,12.87,50.8,50.5,51.2,51.5,50.4,88,91,86,1.132,47.7,48.1,47.4,0,1.4,325,7.9,3.3,0.00004,0.00006,63.8,66.2,10,0,.,.,16.07,0.00,0.00
15min,AgWx,beryljct,423,18JUN2019:02:45:00,51.6,12.87,50.4,50.6,50.7,51.0,50.2,89,91,88,1.122,47.6,47.9,47.2,0,0.2,350,19,1.1,0.00001,0.00002,63.6,66.1,9,0,.,.,16.07,0.00,0.00
15min,AgWx,beryljct,423,18JUN2019:03:00:00,51.5,12.86,51.1,50.8,51.0,51.5,50.5,89,91,88,1.147,48.0,48.3,47.5,0,0.2,13,4.8,0.9,0.00001,0.00001,63.5,66.1,10,0,.,.,16.07,0.00,0.00
15min,AgWx,beryljct,423,18JUN2019:03:15:00,51.5,12.86,52.2,52.1,51.2,52.1,50.8,91,92,88,1.161,48.5,48.9,48.2,0.658,0.1,36,14,1.6,0.00001,0.00001,63.3,65.9,10,0,.,.,16.07,0.00,0.00
15min,AgWx,beryljct,423,18JUN2019:03:30:00,51.6,12.86,50.6,50.4,50.9,52.0,50.4,90,92,87,1.142,48.1,48.5,47.7,1.271,1.8,93,17,3.8,0.00004,0.00006,63.2,65.9,10,0,.,.,16.07,0.00,0.00
15min,AgWx,beryljct,423,18JUN2019:03:45:00,51.7,12.86,50.5,50.8,50.6,50.9,50.4,92,93,90,1.136,48.3,48.7,48.0,0.11,0.5,88,9.1,1.6,0.00001,0.00002,63.0,65.8,9,0,.,.,16.07,0.00,0.00
15min,AgWx,beryljct,423,18JUN2019:04:00:00,51.8,12.85,52.2,51.6,50.7,51.6,50.2,92,94,89,1.182,48.3,49.0,47.6,0.943,0.8,352,42,2.3,0.00002,0.00003,62.9,65.7,10,0,.,.,16.07,0.00,0.00
15min,AgWx,beryljct,423,18JUN2019:04:15:00,52.1,12.84,53.6,52.9,52.2,52.9,51.6,88,91,85,1.165,48.8,49.1,48.6,0.658,2.5,338,7.0,3.4,0.00006,0.00009,62.7,65.6,10,0,.,.,16.07,0.00,0.00
15min,AgWx,beryljct,423,18JUN2019:04:30:00,52.4,12.84,51.3,51.4,51.8,53.2,51.4,90,92,84,1.181,49.0,49.4,48.3,1.929,1.8,128,70,3.3,0.00005,0.00009,62.6,65.5,9,0,.,.,16.08,0.00,0.00
15min,AgWx,beryljct,423,18JUN2019:04:45:00,52.4,12.84,50.8,50.7,50.9,51.4,50.7,92,93,92,1.159,48.8,49.1,48.4,2.302,2.7,170,23,3.9,0.00006,0.00010,62.5,65.4,10,0,.,.,16.08,0.00,0.00
15min,AgWx,beryljct,423,18JUN2019:05:00:00,52.0,12.84,50.7,50.6,50.6,50.8,50.5,92,92,91,1.145,48.3,48.6,48.1,3.376,2.4,176,6.8,3.5,0.00006,0.00009,62.3,65.4,9,0,.,.,16.07,0.00,0.00
15min,AgWx,beryljct,423,18JUN2019:05:15:00,51.5,12.83,50.9,50.9,50.8,51.3,50.4,90,91,87,1.129,47.9,48.2,47.6,0,1.5,191,0.9,3.3,0.00006,0.00009,62.2,65.3,9,2,.,.,16.08,0.00,0.00
15min,AgWx,beryljct,423,18JUN2019:05:30:00,50.9,12.84,50.6,50.0,50.4,50.9,49.9,90,91,89,1.119,47.6,47.9,47.2,1.228,1.1,179,8.1,2.2,0.00011,0.00014,62.1,65.2,10,13,.,.,16.08,0.00,0.00
15min,AgWx,beryljct,423,18JUN2019:05:45:00,50.8,12.87,50.1,49.6,50.1,50.5,49.6,90,92,89,1.109,47.2,47.6,47.1,0,1.1,192,0.2,2.1,0.00023,0.00027,62.0,65.1,10,35,.,.,16.08,0.00,0.00
15min,AgWx,beryljct,423,18JUN2019:06:00:00,50.9,12.87,50.4,50.2,50.1,50.9,49.7,92,93,91,1.154,47.8,48.4,47.3,1.71,0.8,217,54,3.1,0.00048,0.00052,61.9,65.0,9,95,.,.,16.07,0.00,0.00
15min,AgWx,beryljct,423,18JUN2019:06:15:00,52.2,12.87,51.5,51.2,50.6,51.3,50.2,93,94,92,1.178,48.7,49.1,48.3,2.477,2.1,338,11,3.2,0.00063,0.00069,61.8,64.9,9,126,.,.,16.08,0.00,0.00
15min,AgWx,beryljct,423,18JUN2019:06:30:00,53.6,12.89,53.0,52.6,51.8,52.6,51.2,91,92,89,1.208,49.2,49.6,48.6,0,1.4,358,5.0,3.2,0.00084,0.00091,61.7,64.9,9,165,.,.,16.07,0.00,0.00
15min,AgWx,beryljct,423,18JUN2019:06:45:00,55.1,12.9,53.7,53.6,53.0,53.6,52.5,90,91,89,1.274,50.1,51.0,49.5,1.929,1.1,84,18,2.4,0.00091,0.00099,61.6,64.8,10,166,.,.,16.07,0.00,0.00
15min,AgWx,beryljct,423,18JUN2019:07:00:00,56.1,12.91,56.2,55.8,54.5,55.8,53.6,87,91,82,1.244,50.9,51.7,50.0,2.389,2.4,142,10,3.5,0.00115,0.00128,61.5,64.7,9,210,.,.,16.07,0.00,0.00
15min,AgWx,beryljct,423,18JUN2019:07:15:00,58.3,12.94,57.4,57.1,56.5,57.3,55.8,80,83,77,1.225,50.3,51.6,49.3,1.929,1.7,131,11,3.2,0.00168,0.00186,61.4,64.6,10,304,.,.,16.07,0.00,0.00
15min,AgWx,beryljct,423,18JUN2019:07:30:00,60.4,12.97,58.3,58.3,57.8,58.4,57.2,77,81,75,1.256,50.7,51.8,49.9,2.28,2.1,120,13,3.3,0.00198,0.00220,61.4,64.5,10,348,.,.,16.07,0.00,0.00
15min,AgWx,beryljct,423,18JUN2019:07:45:00,62.4,13,59.6,59.8,59.1,59.9,58.3,72,75,66,1.161,50.2,51.5,48.5,3.442,2.2,127,16,4.0,0.00232,0.00258,61.4,64.5,10,399,.,.,16.06,0.00,0.00
15min,AgWx,beryljct,423,18JUN2019:08:00:00,64.2,13.11,60.9,61.0,60.4,61.1,59.7,66,69,61,1.191,48.9,50.5,47.2,0.877,2.4,119,18,4.2,0.00262,0.00295,61.4,64.4,10,436,.,.,16.06,0.00,0.00
15min,AgWx,beryljct,423,18JUN2019:08:15:00,65.9,13.26,61.0,61.6,61.3,61.6,61.0,64,68,62,1.221,49.1,50.5,48.1,3.376,2.4,105,19,5.0,0.00296,0.00332,61.5,64.3,10,489,.,.,16.06,0.00,0.00
15min,AgWx,beryljct,423,18JUN2019:08:30:00,67.5,13.43,62.6,62.4,62.3,62.8,61.6,62,66,58,1.173,49.3,50.6,47.9,2.938,2.6,128,27,4.9,0.00335,0.00376,61.6,64.2,9,547,.,.,16.06,0.00,0.00
15min,AgWx,beryljct,423,18JUN2019:08:45:00,68.9,13.67,63.3,64.3,63.4,64.3,62.4,60,64,58,1.241,49.3,51.1,48.0,4.121,2.0,111,34,4.3,0.00367,0.00407,61.8,64.2,9,594,.,.,16.06,0.00,0.00
15min,AgWx,beryljct,423,18JUN2019:09:00:00,70.3,14.11,66.3,65.1,64.5,65.2,64.1,58,60,55,1.208,49.4,50.8,48.2,4.253,2.6,53,17,5.8,0.00402,0.00450,62.0,64.1,9,639,.,.,16.05,0.00,0.00
15min,AgWx,beryljct,423,18JUN2019:09:15:00,71.5,14.14,65.7,66.6,65.7,66.6,65.1,56,59,53,1.242,49.6,50.7,47.9,6.555,3.7,43,29,6.6,0.00436,0.00497,62.3,64.0,9,682,.,.,16.05,0.00,0.00
15min,AgWx,beryljct,423,18JUN2019:09:30:00,72.4,14.05,67.1,67.6,66.7,67.6,66.2,53,57,51,1.213,49.1,51.0,47.6,6.16,4.0,48,26,6.4,0.00468,0.00536,62.6,64.0,9,720,.,.,16.05,0.00,0.00
15min,AgWx,beryljct,423,18JUN2019:09:45:00,73.2,14.07,67.6,68.9,67.8,68.9,67.0,51,56,49,1.237,49.1,52.5,47.3,4.406,4.3,34,17,7.1,0.00503,0.00578,62.8,63.9,9,765,.,.,16.04,0.00,0.00
15min,AgWx,beryljct,423,18JUN2019:10:00:00,74.1,14.03,67.9,69.0,68.7,69.3,68.1,50,54,46,1.162,49.3,51.7,46.9,1.425,3.7,20,23,7.4,0.00531,0.00604,63.2,63.9,9,802,.,.,16.04,0.00,0.00
15min,AgWx,beryljct,423,18JUN2019:10:15:00,75.2,14.03,69.6,69.5,69.8,70.3,68.7,47,52,42,1.134,48.8,51.5,45.7,2.762,3.3,12,41,5.6,0.00560,0.00634,63.6,63.8,9,836,.,.,16.04,0.00,0.00
15min,AgWx,beryljct,423,18JUN2019:10:30:00,76.1,14,70.3,71.0,70.3,71.0,69.5,45,48,41,1.245,47.8,50.4,45.9,8.9,3.9,13,22,8.9,0.00586,0.00669,63.9,63.8,9,868,.,.,16.04,0.00,0.00
15min,AgWx,beryljct,423,18JUN2019:10:45:00,76.7,14.07,70.8,72.4,71.2,72.5,70.3,44,47,39,1.165,47.9,50.3,45.6,7.453,4.9,16,18,8.6,0.00615,0.00713,64.4,63.8,9,898,.,.,16.04,0.00,0.00
15min,AgWx,beryljct,423,18JUN2019:11:00:00,77.1,13.97,73.5,72.3,72.0,73.5,71.3,44,48,40,1.118,48.9,52.1,46.9,3.354,5.7,48,17,8.8,0.00639,0.00747,64.8,63.8,9,925,.,.,16.03,0.00,0.00
15min,AgWx,beryljct,423,18JUN2019:11:15:00,77.7,13.57,72.6,73.5,72.9,73.9,72.3,39,46,36,1.122,46.8,51.6,43.6,8.48,4.5,31,20,9.1,0.00659,0.00760,65.3,63.8,9,948,.,.,16.03,0.00,0.00
15min,AgWx,beryljct,423,18JUN2019:11:30:00,78.3,13.54,74.2,74.5,73.9,75.0,73.0,40,47,36,1.091,47.8,52.7,45.8,5.349,5.5,26,26,9.7,0.00682,0.00797,65.9,63.8,9,968,.,.,16.03,0.00,0.00
15min,AgWx,beryljct,423,18JUN2019:11:45:00,78.9,13.55,76.1,74.5,74.2,75.1,73.6,37,42,34,1.044,46.3,49.6,43.9,0,4.5,35,30,10.2,0.00693,0.00801,66.4,63.9,9,985,.,.,16.03,0.00,0.00
15min,AgWx,beryljct,423,18JUN2019:12:00:00,79.8,13.59,76.7,76.1,75.2,76.1,74.7,35,39,33,1.074,45.8,48.9,43.7,1.688,4.3,7.1,34,10.2,0.00707,0.00815,66.9,63.9,9,999,.,.,16.03,0.00,0.00
15min,AgWx,beryljct,423,18JUN2019:12:15:00,80.8,13.56,75.8,76.0,75.9,76.6,75.1,35,40,31,1.013,46.3,50.7,43.1,9.65,4.7,47,21,9.7,0.00722,0.00835,67.5,64.0,9,1012,.,.,16.03,0.00,0.00
15min,AgWx,beryljct,423,18JUN2019:12:30:00,81.6,13.49,77.6,77.6,76.6,77.7,75.9,30,38,27,0.894,42.7,49.1,40.0,7.585,4.8,4.9,54,8.3,0.00739,0.00862,68.1,64.1,9,1022,.,.,16.03,0.00,0.00
15min,AgWx,beryljct,423,18JUN2019:12:45:00,82.5,13.49,76.0,77.8,77.3,77.9,76.6,26,30,23,0.825,39.3,43.5,36.3,2.477,3.3,348,61,8.3,0.00707,0.00812,68.7,64.2,9,986,.,.,16.03,0.00,0.00
15min,AgWx,beryljct,423,18JUN2019:13:00:00,83.6,13.45,79.2,77.8,77.5,78.4,76.9,28,35,25,0.961,42.2,47.7,38.7,4.034,3.6,50,30,9.4,0.00687,0.00792,69.4,64.3,9,950,.,.,16.03,0.00,0.00
15min,AgWx,beryljct,423,18JUN2019:13:15:00,84.3,13.46,78.0,78.1,78.1,78.9,77.6,27,31,24,0.908,41.1,45.0,37.9,1.6,3.1,10,33,7.3,0.00753,0.00857,70.0,64.4,10,1049,.,.,16.03,0.00,0.00
15min,AgWx,beryljct,423,18JUN2019:13:30:00,85.0,13.47,80.6,78.2,77.8,78.8,77.2,29,35,25,0.933,43.0,48.5,39.1,3.069,4.1,73,31,9.3,0.00777,0.00895,70.6,64.5,9,1072,.,.,16.03,0.00,0.00
15min,AgWx,beryljct,423,18JUN2019:13:45:00,85.4,13.39,78.1,78.8,78.8,79.5,78.2,27,33,24,0.908,41.9,46.8,38.9,4.889,6.1,18,45,11.3,0.00796,0.00948,71.3,64.7,10,1062,.,.,16.03,0.00,0.00
15min,AgWx,beryljct,423,18JUN2019:14:00:00,85.2,13.41,78.1,78.3,78.7,80.0,78.1,27,32,23,0.954,42.1,47.0,37.8,15.85,7.8,7.1,24,15.9,0.00559,0.00717,71.9,64.8,9,645,.,.,16.03,0.01,0.00
15min,AgWx,beryljct,423,18JUN2019:14:15:00,84.3,13.45,78.1,78.5,78.2,78.9,77.5,30,34,27,0.974,44.2,48.0,41.8,13.61,8.9,352,19,16.0,0.00668,0.00843,72.5,65.0,9,851,.,.,16.03,0.00,0.00
15min,AgWx,beryljct,423,18JUN2019:14:30:00,83.9,13.4,77.1,78.6,78.9,79.9,78.2,28,33,25,0.872,43.5,47.7,40.4,5.831,8.4,4.7,20,14.1,0.00760,0.00938,73.0,65.2,10,981,.,.,16.03,0.00,0.00
15min,AgWx,beryljct,423,18JUN2019:14:45:00,84.2,13.39,80.6,79.6,78.9,79.7,78.3,27,32,24,0.886,42.5,46.1,38.7,1.469,4.7,35,20,9.6,0.00656,0.00778,73.5,65.4,10,880,.,.,16.03,0.00,0.00
15min,AgWx,beryljct,423,18JUN2019:15:00:00,84.3,13.43,79.3,78.4,78.4,79.8,77.7,31,41,25,0.839,44.8,52.4,39.9,9.21,10.3,323,16,16.2,0.00652,0.00840,73.9,65.6,9,804,.,.,16.03,0.00,0.00
15min,AgWx,beryljct,423,18JUN2019:15:15:00,84.5,13.39,81.3,79.6,79.3,80.0,78.4,25,30,23,0.928,40.5,45.9,37.8,3.705,5.4,324,31,10.4,0.00645,0.00782,74.3,65.8,10,848,.,.,16.04,0.00,0.00
15min,AgWx,beryljct,423,18JUN2019:15:30:00,85.4,13.41,80.6,80.2,79.6,80.6,79.0,25,31,21,0.753,40.7,46.0,37.1,0.417,3.7,291,60,11.8,0.00569,0.00673,74.7,66.0,10,773,.,.,16.03,0.00,0.00
15min,AgWx,beryljct,423,18JUN2019:15:45:00,86.3,13.38,78.6,79.1,79.8,80.6,79.0,27,36,21,0.924,42.8,50.3,37.2,10.41,6.3,320,29,11.5,0.00582,0.00723,75.0,66.2,10,741,.,.,16.03,0.00,0.00
15min,AgWx,beryljct,423,18JUN2019:16:00:00,86.1,13.42,78.7,79.1,79.3,80.0,79.0,27,32,23,0.990,42.6,47.8,38.1,8.81,7.6,317,20,12.6,0.00582,0.00741,75.3,66.4,10,721,.,.,16.03,0.00,0.00
15min,AgWx,beryljct,423,18JUN2019:16:15:00,86.0,13.36,79.3,79.9,79.8,80.3,79.0,25,33,20,0.837,40.2,48.2,34.9,4.647,5.4,340,27,10.4,0.00524,0.00653,75.6,66.7,10,674,.,.,16.03,0.00,0.00
15min,AgWx,beryljct,423,18JUN2019:16:30:00,86.4,13.33,79.8,80.2,80.1,80.9,79.8,24,33,20,0.923,40.2,48.4,35.4,3.244,3.9,311,55,8.9,0.00461,0.00562,75.9,66.9,10,617,.,.,16.03,0.00,0.00
15min,AgWx,beryljct,423,18JUN2019:16:45:00,86.7,13.34,79.6,79.9,80.1,80.6,79.8,26,32,21,0.741,42.3,47.6,36.9,3.924,3.9,283,35,8.4,0.00428,0.00525,76.1,67.1,9,567,.,.,16.03,0.00,0.00
15min,AgWx,beryljct,423,18JUN2019:17:00:00,85.8,13.35,79.5,79.6,79.1,79.9,78.0,30,39,21,0.897,44.5,51.6,36.6,1.929,4.9,242,29,9.3,0.00351,0.00455,76.3,67.3,9,455,.,.,16.03,0.00,0.00
15min,AgWx,beryljct,423,18JUN2019:17:15:00,85.6,13.38,79.3,79.7,80.0,80.6,79.3,30,39,25,1.028,46.1,53.2,41.1,9.03,4.8,269,34,9.5,0.00410,0.00514,76.4,67.5,10,533,.,.,16.03,0.00,0.00
15min,AgWx,beryljct,423,18JUN2019:17:30:00,85.5,13.29,79.3,79.2,79.6,80.1,79.2,29,33,22,0.942,44.5,48.6,37.6,4.516,5.5,284,26,10.4,0.00365,0.00479,76.5,67.7,10,448,.,.,16.03,0.00,0.00
15min,AgWx,beryljct,423,18JUN2019:17:45:00,84.7,13.4,78.5,79.3,78.8,79.5,77.8,31,36,27,0.996,45.6,49.2,42.4,4.494,4.9,264,24,9.7,0.00308,0.00406,76.6,67.9,10,396,.,.,16.03,0.00,0.00
15min,AgWx,beryljct,423,18JUN2019:18:00:00,84.3,13.41,77.6,78.2,78.8,79.3,78.2,31,34,27,1.022,45.4,48.1,41.7,7.015,6.8,298,17,12.2,0.00336,0.00462,76.7,68.1,10,386,.,.,16.04,0.00,0.00
15min,AgWx,beryljct,423,18JUN2019:18:15:00,83.6,13.26,77.5,77.8,78.1,78.5,77.4,31,39,26,1.067,45.0,50.7,40.2,7.015,6.2,279,21,12.3,0.00275,0.00389,76.7,68.3,10,316,.,.,16.04,0.00,0.00
15min,AgWx,beryljct,423,18JUN2019:18:30:00,82.6,13.18,78.1,78.3,78.1,78.5,77.6,30,35,26,0.950,43.8,48.4,40.3,3.135,4.6,277,14,7.8,0.00205,0.00294,76.6,68.5,10,255,.,.,16.04,0.00,0.00
15min,AgWx,beryljct,423,18JUN2019:18:45:00,81.9,13.18,76.9,77.3,77.7,78.5,76.9,30,34,26,0.984,44.1,46.7,40.8,5.787,5.4,305,18,7.3,0.00182,0.00278,76.5,68.6,10,204,.,.,16.04,0.00,0.00
15min,AgWx,beryljct,423,18JUN2019:19:00:00,81.0,13.14,73.8,76.7,76.6,77.3,76.1,33,37,29,1.036,45.3,48.5,42.4,3.376,5.9,299,13,8.6,0.00161,0.00261,76.4,68.8,10,164,.,.,16.04,0.01,0.00
15min,AgWx,beryljct,423,18JUN2019:19:15:00,80.0,13.13,75.1,75.7,77.1,78.9,75.6,31,37,23,1.097,43.8,47.7,37.6,3.135,2.4,271,14,4.7,0.00050,0.00078,76.3,69.0,10,116,.,.,16.04,0.00,0.00
15min,AgWx,beryljct,423,18JUN2019:19:30:00,78.5,13.13,75.3,75.2,74.9,75.7,74.2,37,41,31,1.023,46.7,49.1,42.9,5.546,3.8,263,5.7,5.5,0.00051,0.00077,76.2,69.1,10,76,.,.,16.04,0.00,0.00
15min,AgWx,beryljct,423,18JUN2019:19:45:00,76.9,13.11,72.1,72.9,73.7,75.5,72.8,38,40,32,1.085,46.3,47.8,43.8,4.647,4.4,255,7.4,6.3,0.00046,0.00069,76.0,69.2,10,36,.,.,16.04,0.00,0.00
15min,AgWx,beryljct,423,18JUN2019:20:00:00,75.0,13.1,70.6,71.3,72.1,72.9,71.3,40,42,37,1.073,46.4,47.2,45.2,5.59,5.0,245,3.5,6.2,0.00042,0.00063,75.8,69.3,10,11,.,.,16.05,0.01,0.00
15min,AgWx,beryljct,423,18JUN2019:20:15:00,73.3,13.08,71.7,71.5,71.5,71.8,71.0,40,42,39,1.039,46.0,46.6,45.5,6.423,5.9,236,3.4,7.0,0.00049,0.00071,75.6,69.4,10,3,.,.,16.05,0.01,0.00
15min,AgWx,beryljct,423,18JUN2019:20:30:00,72.3,13.07,71.5,71.5,71.8,72.2,71.4,39,40,37,1.029,45.3,45.7,44.7,6.796,6.6,230,4.3,7.9,0.00057,0.00081,75.3,69.5,10,0,.,.,16.05,0.00,0.00
15min,AgWx,beryljct,423,18JUN2019:20:45:00,71.7,13.06,72.1,71.4,71.4,71.5,71.1,39,40,38,1.015,45.2,45.6,44.6,7.3,6.5,228,4.0,7.9,0.00055,0.00078,75.1,69.6,10,0,.,.,16.05,0.00,0.00
15min,AgWx,beryljct,423,18JUN2019:21:00:00,71.1,13.06,71.6,71.5,71.3,71.7,71.1,39,40,37,1.004,44.9,45.5,44.2,6.927,6.8,228,4.4,8.6,0.00057,0.00081,74.7,69.7,10,0,.,.,16.05,0.00,0.00
15min,AgWx,beryljct,423,18JUN2019:21:15:00,70.8,13.05,68.2,68.8,70.7,71.5,68.8,40,44,38,1.048,45.1,45.9,44.5,4.998,5.9,217,10,8.0,0.00048,0.00069,74.5,69.7,10,0,.,.,16.06,0.00,0.00
15min,AgWx,beryljct,423,18JUN2019:21:30:00,70.1,13.05,69.6,70.2,69.5,70.3,68.4,41,44,40,1.023,45.1,45.7,44.6,6.27,6.9,215,9.9,10.3,0.00053,0.00075,74.2,69.8,10,0,.,.,16.06,0.00,0.00
15min,AgWx,beryljct,423,18JUN2019:21:45:00,69.8,13.03,70.0,70.3,70.2,70.4,70.0,40,41,39,0.999,44.8,45.2,44.4,6.072,6.6,221,5.5,7.8,0.00053,0.00075,73.9,69.8,10,0,.,.,16.06,0.00,0.00
15min,AgWx,beryljct,423,18JUN2019:22:00:00,69.6,13.02,69.6,69.8,70.1,70.3,69.8,40,40,39,0.997,44.4,44.9,44.0,5.963,6.4,215,5.1,7.7,0.00052,0.00074,73.6,69.8,10,0,.,.,16.05,0.00,0.00
15min,AgWx,beryljct,423,18JUN2019:22:15:00,69.4,13.01,71.2,71.2,70.1,71.2,69.7,39,41,37,0.954,44.3,44.8,43.3,7.344,6.7,219,5.2,9.4,0.00055,0.00077,73.3,69.8,10,0,.,.,16.06,0.00,0.00
15min,AgWx,beryljct,423,18JUN2019:22:30:00,69.6,13,71.0,70.8,70.9,71.3,70.5,38,39,37,0.965,43.8,44.2,43.4,7.344,7.3,221,6.1,10.2,0.00063,0.00087,73.0,69.9,10,0,.,.,16.05,0.00,0.00
15min,AgWx,beryljct,423,18JUN2019:22:45:00,69.5,13,70.7,70.2,70.5,70.8,70.1,38,39,37,0.964,43.7,44.1,43.4,7.388,7.2,218,5.6,9.0,0.00061,0.00085,72.7,69.8,10,0,.,.,16.05,0.00,0.00
15min,AgWx,beryljct,423,18JUN2019:23:00:00,69.1,13,63.1,62.1,67.3,70.4,61.4,44,55,38,0.987,44.4,45.5,43.4,4.954,4.1,188,67,8.1,0.00024,0.00038,72.4,69.8,10,0,.,.,16.05,0.00,0.00
15min,AgWx,beryljct,423,18JUN2019:23:15:00,67.2,12.97,61.3,61.3,62.1,62.8,60.7,52,56,49,0.993,44.2,44.9,43.6,3.398,4.9,109,10,6.4,0.00021,0.00032,72.1,69.8,10,0,.,.,16.06,0.00,0.00
15min,AgWx,beryljct,423,18JUN2019:23:30:00,65.1,12.97,56.2,59.2,61.2,62.1,59.2,54,61,51,1.051,44.5,45.9,43.8,3.376,2.8,145,52,5.2,0.00001,0.00005,71.9,69.7,10,0,.,.,16.06,0.00,0.00
15min,AgWx,bigpiney,439,18JUN2019:00:00:00,52.0,12.72,47.8,47.6,47.7,47.8,47.6,86,87,85,0.957,43.8,44.1,43.4,0,1.4,314,16,3.2,-0.00009,-0.00012,53.4,50.5,55,0,0,0.0,3.39,0.00,0.00
15min,AgWx,bigpiney,439,18JUN2019:00:15:00,51.5,12.72,48.1,47.9,47.7,48.1,47.3,85,86,83,0.963,43.4,43.7,42.9,1.951,0.3,295,32,2.1,-0.00014,-0.00021,53.3,50.5,55,0,0,0.0,3.39,0.00,0.00
15min,AgWx,bigpiney,439,18JUN2019:00:30:00,50.8,12.71,46.5,46.3,46.8,48.0,46.1,87,89,84,0.944,43.1,43.6,42.8,2.346,1.5,251,37,2.4,-0.00008,-0.00011,53.3,50.6,55,0,0,0.0,3.39,0.00,0.00
15min,AgWx,bigpiney,439,18JUN2019:00:45:00,49.9,12.69,43.6,43.8,45.0,46.3,43.8,90,91,87,0.876,42.1,43.0,41.1,3.047,2.8,240,21,3.6,-0.00005,-0.00006,53.3,50.6,55,0,0,0.0,3.39,0.00,0.00
15min,AgWx,bigpiney,439,18JUN2019:01:00:00,49.1,12.69,44.9,44.4,44.0,44.4,43.5,91,92,90,0.905,41.7,42.1,40.9,2.192,2.1,248,16,3.1,-0.00008,-0.00010,53.2,50.6,55,0,0,0.0,3.39,0.00,0.00
15min,AgWx,bigpiney,439,18JUN2019:01:15:00,48.4,12.67,44.8,44.3,44.5,44.8,44.2,89,91,88,0.869,41.5,42.2,40.9,3.376,2.9,261,7.0,3.6,-0.00005,-0.00006,53.2,50.6,55,0,0,0.0,3.39,0.00,0.00
15min,AgWx,bigpiney,439,18JUN2019:01:30:00,47.9,12.66,42.7,43.0,44.1,44.6,43.0,87,88,86,0.834,40.5,41.0,39.8,0.789,3.5,231,14,5.9,-0.00003,-0.00003,53.1,50.5,55,0,0,0.0,3.39,0.00,0.00
15min,AgWx,bigpiney,439,18JUN2019:01:45:00,47.3,12.65,41.2,41.0,42.4,43.0,41.0,90,91,89,0.791,39.8,40.7,38.5,1.074,1.7,315,81,3.5,-0.00008,-0.00011,53.1,50.5,55,0,0,0.0,3.39,0.00,0.00
15min,AgWx,bigpiney,439,18JUN2019:02:00:00,46.7,12.64,42.4,42.3,42.1,42.7,41.0,92,92,91,0.838,39.8,40.6,38.5,2.477,1.3,337,26,2.8,-0.00010,-0.00013,53.0,50.5,55,0,0,0.0,3.39,0.00,0.00
15min,AgWx,bigpiney,439,18JUN2019:02:15:00,46.1,12.63,42.0,41.7,41.9,42.3,41.7,92,92,91,0.826,39.7,39.9,39.4,0.307,0.9,294,21,2.6,-0.00011,-0.00015,53.0,50.5,55,0,1,0.0,3.39,0.00,0.00
15min,AgWx,bigpiney,439,18JUN2019:02:30:00,45.6,12.62,41.4,41.2,41.3,41.9,41.0,93,93,92,0.816,39.3,39.9,39.0,0,0.9,291,10,1.9,-0.00011,-0.00016,52.9,50.5,55,0,1,0.0,3.39,0.00,0.00
15min,AgWx,bigpiney,439,18JUN2019:02:45:00,45.1,12.61,42.0,41.5,41.2,41.5,40.8,93,94,93,0.827,39.4,39.7,38.9,1.907,0.8,270,8.7,2.3,-0.00011,-0.00017,52.9,50.5,55,0,1,0.0,3.39,0.00,0.00
15min,AgWx,bigpiney,439,18JUN2019:03:00:00,44.7,12.59,41.3,41.2,41.6,41.8,41.2,91,93,90,0.799,39.3,39.8,38.8,1.732,1.8,308,20,2.4,-0.00008,-0.00011,52.8,50.5,55,0,1,0.0,3.39,0.00,0.00
15min,AgWx,bigpiney,439,18JUN2019:03:15:00,44.5,12.58,42.1,41.7,41.3,41.7,41.1,92,92,91,0.819,39.1,39.4,38.7,1.644,1.3,231,14,2.1,-0.00010,-0.00013,52.7,50.5,55,0,1,0.0,3.39,0.00,0.00
15min,AgWx,bigpiney,439,18JUN2019:03:30:00,44.1,12.57,41.6,41.4,41.6,41.9,41.2,91,92,91,0.807,39.2,39.7,38.7,1.359,0.6,226,8.1,1.6,-0.00012,-0.00018,52.7,50.5,55,0,1,0.0,3.39,0.00,0.00
15min,AgWx,bigpiney,439,18JUN2019:03:45:00,43.8,12.56,40.2,39.9,40.3,41.4,39.8,92,93,91,0.779,38.2,39.0,37.8,1.271,1.7,243,13,2.9,-0.00009,-0.00011,52.6,50.4,55,0,1,0.0,3.39,0.00,0.00
15min,AgWx,bigpiney,439,18JUN2019:04:00:00,43.6,12.55,40.9,40.3,39.9,40.4,39.7,94,94,93,0.797,38.3,38.8,37.9,2.236,2.4,242,4.2,3.1,-0.00007,-0.00009,52.5,50.4,55,0,1,0.0,3.39,0.00,0.00
15min,AgWx,bigpiney,439,18JUN2019:04:15:00,43.4,12.54,40.9,40.8,40.8,41.0,40.3,94,94,93,0.811,39.2,39.4,38.7,2.916,1.4,246,7.2,2.9,-0.00010,-0.00013,52.4,50.4,55,0,1,0.0,3.39,0.00,0.00
15min,AgWx,bigpiney,439,18JUN2019:04:30:00,43.3,12.54,40.8,40.5,40.4,40.8,40.0,93,94,93,0.794,38.6,39.1,38.1,2.105,2.3,244,9.0,3.0,-0.00007,-0.00009,52.4,50.4,55,0,1,0.0,3.39,0.00,0.00
15min,AgWx,bigpiney,439,18JUN2019:04:45:00,43.0,12.54,38.6,38.5,39.5,40.4,38.5,92,93,92,0.731,37.4,38.6,36.5,2.653,2.7,229,4.5,3.2,-0.00006,-0.00007,52.2,50.4,55,3,1,0.0,3.39,0.00,0.00
15min,AgWx,bigpiney,439,18JUN2019:05:00:00,42.7,12.55,39.8,39.2,38.6,39.2,38.4,93,94,93,0.760,36.7,37.5,36.4,2.214,2.8,236,11,3.7,-0.00034,-0.00034,52.2,50.4,55,13,1,0.0,3.39,0.00,0.00
15min,AgWx,bigpiney,439,18JUN2019:05:15:00,42.5,12.57,40.6,40.1,39.7,40.1,39.2,93,94,92,0.780,37.9,38.2,37.6,0.855,2.1,243,9.4,3.9,-0.00023,-0.00022,52.1,50.4,55,41,1,0.0,3.39,0.00,0.00
15min,AgWx,bigpiney,439,18JUN2019:05:30:00,42.7,12.6,43.1,42.4,41.2,42.4,40.1,93,93,93,0.853,39.4,40.5,38.2,2.126,2.2,278,22,3.6,-0.00005,-0.00004,52.0,50.4,55,78,1,0.0,3.39,0.00,0.00
15min,AgWx,bigpiney,439,18JUN2019:05:45:00,43.7,12.72,44.9,44.4,43.0,44.4,42.4,92,93,91,0.922,41.0,42.5,40.0,1.315,1.3,329,20,2.5,0.00031,0.00034,51.9,50.3,55,149,1,0.0,3.39,0.00,0.00
15min,AgWx,bigpiney,439,18JUN2019:06:00:00,45.6,12.71,46.4,46.4,45.8,46.4,44.4,90,93,88,0.946,43.1,43.8,42.4,0.833,0.2,290,26,1.5,0.00026,0.00028,51.8,50.3,55,136,1,0.0,3.39,0.00,0.00
15min,AgWx,bigpiney,439,18JUN2019:06:15:00,46.7,12.7,46.4,45.9,45.9,46.4,45.6,90,90,88,0.942,43.0,43.2,42.7,2.477,1.8,166,33,3.0,0.00040,0.00045,51.7,50.3,55,108,1,0.0,3.39,0.00,0.00
15min,AgWx,bigpiney,439,18JUN2019:06:30:00,47.4,12.63,44.6,44.5,45.1,46.0,44.5,90,91,90,0.900,42.5,43.1,41.8,4.45,3.5,204,15,5.1,0.00044,0.00052,51.6,50.3,55,94,0,0.0,3.39,0.00,0.00
15min,AgWx,bigpiney,439,18JUN2019:06:45:00,47.9,12.74,49.1,48.2,46.2,48.2,44.3,90,92,86,0.983,43.4,44.8,41.7,1.008,2.8,229,12,4.5,0.00097,0.00107,51.5,50.2,55,262,0,0.0,3.39,0.00,0.00
15min,AgWx,bigpiney,439,18JUN2019:07:00:00,49.5,12.77,50.8,50.8,50.0,51.0,48.2,80,86,71,0.893,44.0,45.7,41.6,1.798,0.5,288,31,2.5,0.00141,0.00152,51.4,50.2,55,326,0,0.0,3.39,0.00,0.00
15min,AgWx,bigpiney,439,18JUN2019:07:15:00,51.6,12.85,52.4,52.4,51.8,52.5,50.8,70,74,68,0.926,42.3,44.4,41.1,2.083,0.5,3.1,28,2.1,0.00170,0.00183,51.3,50.1,55,366,0,0.0,3.39,0.00,0.00
15min,AgWx,bigpiney,439,18JUN2019:07:30:00,53.9,13.16,53.2,53.4,52.7,53.6,52.0,68,71,65,0.937,42.4,44.3,40.5,2.368,1.9,324,33,4.1,0.00218,0.00242,51.3,50.1,55,443,0,0.0,3.39,0.00,0.00
15min,AgWx,bigpiney,439,18JUN2019:07:45:00,55.9,13.52,53.0,53.2,53.2,54.0,52.8,69,71,66,0.955,43.2,44.3,41.7,3.551,2.2,14,32,4.7,0.00172,0.00195,51.2,50.1,55,318,0,0.0,3.39,0.00,0.00
15min,AgWx,bigpiney,439,18JUN2019:08:00:00,57.4,13.88,55.3,55.0,54.2,55.0,53.2,69,72,66,1.000,44.2,45.1,43.2,2.521,2.5,15,27,5.1,0.00325,0.00360,51.1,50.1,55,617,0,0.0,3.39,0.00,0.00
15min,AgWx,bigpiney,439,18JUN2019:08:15:00,59.2,14.04,55.7,55.5,55.4,56.0,54.8,67,69,65,1.007,44.6,45.9,43.6,0.899,3.0,32,36,5.6,0.00306,0.00342,51.0,50.1,55,574,0,0.0,3.39,0.00,0.00
15min,AgWx,bigpiney,439,18JUN2019:08:30:00,60.8,14.39,57.3,57.0,56.4,57.5,55.5,66,69,63,1.002,45.3,47.4,43.4,2.587,2.0,112,66,5.1,0.00331,0.00364,50.9,50.0,55,604,0,0.0,3.39,0.00,0.00
15min,AgWx,bigpiney,439,18JUN2019:08:45:00,62.3,14.38,56.9,57.8,57.0,57.9,56.5,65,69,61,1.104,45.3,48.0,43.5,4.319,1.9,128,48,4.3,0.00373,0.00409,50.9,50.0,55,668,0,0.0,3.39,0.00,0.00